Volver al catálogo

STARLINK-5425

ActivoComunicacionesVLEO
NORAD 54791·PAYLOAD·🇺🇸 United States

Lanzado Dec 17, 2022 desde Cape Canaveral Space Force Station

Loading…

Próximos Pases (próximas 24 horas)

TLE

ActualizadoSource: CelesTrak SupGP

Época: Sep 14, 2026, 21:26 UTC

1 54791C 22175AK  26257.89354167  .00048657  00000+0  14378-2 0  2579
2 54791  53.1575 245.8180 0001230  93.3316 226.6925 15.34362248    14

Sigue STARLINK-5425 en tiempo real con AllMySat

Download on the App Store